Showing default

COSMOS 1691, 16139

Orbit data source: Space-Track

COSMOS 1691, 16139 is a payload satellite owned by GUKOS (CIS) in LEO that was launched on Wed, 09 Oct 1985 UTC via a TSIKLON-3 launch vehicle from the Plesetsk Missile And Space Complex (PKMTR). Payload-class satellites include a variety of spacecraft equipped with specific instruments for various scientific and technological missions. These include communications satellites like Starlink; space stations such as the ISS; scientific satellites like the Hubble; Earth observation satellites from companies like Planet Labs, Umbra, and HawkEye 360; GPS; miniature CubeSats for education and research; and military/defense satellites.

Loading next visibility...
Identifier
16139, 1985-094B
Orbit
LEO
Country
Flag of CISCIS
Related business
Manufacturer
NPO PM
Mission
Spacecraft
Bus & Motor
STRELA-3, Unknown motor
Mass
225 kg wet, 225 kg dry
Launch date (UTC)
1985-10-09 (40 years ago)
Launch vehicle
TSIKLON-3
Launch site
Plesetsk Missile And Space Complex (PKMTR)
Object type
Payload
Rocket body
Debris
Shape & HBR
Unknown
Radar Cross Section
Medium (>0.1 m² and <1 m²)

Expand to show TLE details & history
Last TLE update: 12 hours ago

TLE from 12 hours ago
0 COSMOS 1691
1 16139U 85094B   25297.88406056  .00000019  00000-0  44680-4 0  9994
2 16139  82.6091  79.4351 0000842  80.2833  41.2318 12.62467541845548
Epoch: 2025-10-24T21:13Z
TLE epoch observation values (Epoch: 2025-10-24T21:13:02.832Z)
Latitude
57.80098°
Longitude
-104.17738°
Altitude
1,421.96 km
Speed
7.155 km/s
True Right ascension
16h 30m 25s
True Declination
57° 39' 32"
Sunlit
Object was in daylight at epoch
Visualization orbit readout
Latitude
Unknown
Longitude
Unknown
Altitude
Unknown
Speed
Unknown
Apparent Right ascension
Unknown
Apparent Declination
Unknown
Sunlit
N/A
Visualization observer readout
Local Sidereal Time
04:33:15
Azimuth
Unknown
Elevation
Unknown
Doppler factor
Unknown
Orbital elements
Apogee altitude
1,410.751 km
Perigee altitude
1,409.44 km
Semi-major axis
7,788.232 km
Eccentricity
0.00008
Inclination
82.6091°
RAAN
79.4351°
Arg. of periapsis
80.2833°
True anomaly
41.23816°
Mean anomaly
41.2318°
Eccentric anomaly
41.23498°
Mean motion
3.1578 °/min
Orbital period
114 mins
BSTAR
0.00004468
Loading maneuver chart data...
Computing Atmospheric mass density...
Loading historical data...
Loading historical data...
Loading historical data...
Loading historical data...
Loading historical data...
Loading historical data...
Loading historical data...

Documentation

Showing up to 5 results
|